Airfield :
LOGIN :

Register | Disclaimer

   EN    FR    IT 

 










Legend :    VFR   Marginal VFR   IFR   Intensive IFR   Very Intensive IFR
Visi :
Ceiling :
>= 8 km
>= 3000ft
5 to 8 km
1000 to 3000 ft
1500m to 5 km
500 to 1000 ft
800 to 1500m
200 to 500 ft
< 800m
< 200 ft
Symbols :   Thunderstorms  Fog  Heavy snow  Heavy precipitations  Wind > 20 kt
SIGMETs :     Misc.  Thunderstorms  Icing  Turbulence  Mountain Waves  Volcanic Ashes







- Airport Elevation : 12 ft
- IATA code : NCE
- Download approach charts


LFMN - Nice

CURRENT METAR :
  • 181730Z 01005KT 340V050 CAVOK 22/15 Q1013 NOSIG

EXPIRED METARs :
  • 181700Z 06007KT CAVOK 22/16 Q1012 NOSIG
  • 181630Z 07008KT CAVOK 22/16 Q1012 NOSIG
  • 181600Z 10009KT CAVOK 22/16 Q1012 NOSIG
  • 181530Z 08010KT CAVOK 23/16 Q1012 NOSIG
  • 181500Z 09008KT CAVOK 23/16 Q1012 NOSIG

TAF TAF LFMN
Valid from the 18 at 15:00 until the 19 at 21:00 UTC


181400Z 1815/1921 10012KT 9999 FEW040 BKN150
BECMG 1818/1821 34010KT
BECMG 1908/1910 19008KT
BECMG 1917/1919 33010KT
ATIS : +33 4 93 17 21 16
No reported NOTAMs for that airfield.



MET'MAP, your aeronautical weather chart ! - Copyright ORBIFLY December 2007 - Disclaimer

ORBIFLY MET'MAP TEAM :

Programming & Development : Alexandra Zaïnal
Concept & Development : Baudouin d'Aumeries
Co-Development & Prog : Marc-Olivier Méhu
Technical & hardware support : Manuel Goepfert

Contact : metmap@orbifly.com




SOURCES & CREDITS :

   NOAA